Regional Weather Roundup
Issued by NWS

Home | Current Version | Previous Version | Graphics & Text | Print | Product List | Glossary On
Versions: 1 2 3 4 5 6 7 8 9 10 11 12 13 14 15 16 17 18 19 20 21 22 23 24 25 26 27 28 29 30 31 32 33 34 35 36 37 38 39 40 41 42 43 44 45 46 47 48 49 50
000
ASUS43 KMKX 212021
RWRWI

WISCONSIN REGIONAL WEATHER ROUNDUP
NATIONAL WEATHER SERVICE MILWAUKEE/SULLIVAN WI
200 PM CST TUE NOV 21 2017

NOTE: "FAIR" INDICATES FEW OR NO CLOUDS BELOW 12,000 FEET WITH NO
SIGNIFICANT WEATHER AND/OR OBSTRUCTIONS TO VISIBILITY.

WIZ001-002-006>008-014>016-023>028-212100-
NORTHWEST WISCONSIN

CITY           SKY/WX    TMP DP  RH WIND       PRES   REMARKS
SUPERIOR ARPT  SUNNY     27   9  45 NW18      30.11R WCI  14
ASHLAND        PTSUNNY   26  10  50 NW15G24   30.05R WCI  14
HAYWARD        SUNNY     26   8  46 NW8       30.04R WCI  18
SIREN          SUNNY     28   8  41 N13       30.09R WCI  18
CUMBERLAND     SUNNY     28  10  47 NW16      30.05R WCI  17
RICE LAKE      SUNNY     28  10  48 NW17      30.07R WCI  15
CHETEK         MOSUNNY   27  13  54 NW7G16    30.06R WCI  20
LADYSMITH      CLOUDY    28  13  54 NW14      30.03R WCI  16
EAU CLAIRE     MOSUNNY   28  12  51 NW14G25   30.06R WCI  17
MENOMONIE      SUNNY     29  12  48 NW13      30.09R WCI  19
NEW RICHMOND   SUNNY     28  11  47 NW22      30.11R WCI  14
OSCEOLA        SUNNY     29  11  47 NW15G21   30.15R WCI  18
$$

WIZ003>005-009-010-017-018-212100-
NORTH CENTRAL WISCONSIN

CITY           SKY/WX    TMP DP  RH WIND       PRES   REMARKS
MANITOWISH WTR LGT SNOW  19  13  77 NW17G24   29.94R WCI   4
ARBOR VITAE    LGT SNOW  22  16  78 NW18G29   29.94R WCI   7
WOODRUFF       LGT SNOW  22  16  78 NW18G29   29.94R WCI   7
RHINELANDER    FLURRIES  23  14  68 NW8G17    29.92R WCI  14
EAGLE RIVER    FLURRIES  21  12  70 NW15G30   29.92R WCI   7
LAND O LAKES   LGT SNOW  21  15  79 NW15G26   29.92R WCI   7
PHILLIPS       FLURRIES  22  14  70 NW13G18   29.99R WCI  10
TOMAHAWK       FLURRIES  24  13  64 NW9G21    29.95R WCI  14
MEDFORD        CLOUDY    25  12  58 NW21G26   29.96R WCI  10
MERRILL        CLOUDY    25  13  60 NW17G23   29.97R WCI  12
$$

WIZ029-030-035-036-043>047-212100-
CENTRAL WISCONSIN

CITY           SKY/WX    TMP DP  RH WIND       PRES   REMARKS
WAUSAU         CLOUDY    26  13  57 NW16G29   29.94R WCI  14
MOSINEE        NOT AVBL
MARSHFIELD     PTSUNNY   28  12  51 NW21G31   29.96R WCI  15
STEVENS POINT  CLOUDY    27  10  49 NW18G26   29.96R WCI  14
WAUPACA        PTSUNNY   32  12  42 NW10G25   29.94R WCI  24
WAUTOMA        NOT AVBL
WISC RAPIDS    CLOUDY    29  12  49 N21G29    29.99R WCI  16
CAMP DOUGLAS   PTSUNNY   32  12  43 NW15      30.00R WCI  22
$$

WIZ011>013-019>022-031-037>040-048>050-212100-
NORTHEAST WISCONSIN

CITY           SKY/WX    TMP DP  RH WIND       PRES   REMARKS
ANTIGO         FLURRIES  24  15  67 NW16G30   29.90R WCI  11
SHAWANO        CLOUDY    32  14  47 NW12G18   29.92R WCI  23
OCONTO         CLOUDY    31  14  48 NW15G22   29.88R WCI  20
STURGEON BAY   CLOUDY    31  17  56 NW20      29.86R WCI  19
GREEN BAY      CLOUDY    32  17  54 NW18G25   29.90R WCI  20
MANITOWOC      CLOUDY    33  15  47 NW16G25   29.88R WCI  23
APPLETON       CLOUDY    30  10  43 NW17G23   29.89R WCI  18
CLINTONVILLE   CLOUDY    30  10  43 N18G26    29.91R WCI  18
OSHKOSH        CLOUDY    30  15  53 NW21G26   29.91R WCI  17
$$

WIZ032>034-041-042-053>061-212100-
SOUTHWEST WISCONSIN

CITY           SKY/WX    TMP DP  RH WIND       PRES   REMARKS
LA CROSSE      SUNNY     33  13  43 NW18G28   30.06R WCI  22
SPARTA         MOSUNNY   31  13  47 NW18      30.04R WCI  20
VIROQUA        MOSUNNY   29  16  57 NW17G29   30.02R WCI  17
BOSCOBEL       SUNNY     35  14  42 NW17G28   30.03R WCI  25
PRAIRIE DU CHI SUNNY     33  12  42 NW20G26   30.05R WCI  21
PLATTEVILLE    PTSUNNY   32  20  61 NW20      29.99R WCI  20
$$

WIZ056-057-062-063-064-067-068-212100-
SOUTH CENTRAL WISCONSIN

CITY           SKY/WX    TMP DP  RH WIND       PRES   REMARKS
REEDSBURG      PTSUNNY   31  14  49 NW15G24   29.98R WCI  20
BARABOO/DELLS  PTSUNNY   32  14  47 NW13G23   29.97R WCI  22
LONE ROCK      SUNNY     33  15  47 NW18G26   29.99R WCI  22
MINERAL POINT  PTSUNNY   34  19  55 NW16G24   29.96R WCI  23
MADISON        PTSUNNY   34  15  46 N16G25    29.94R WCI  24
MIDDLETON      PTSUNNY   36  18  47 NW17G23   29.95R WCI  26
WATERTOWN      CLOUDY    34  15  46 NW16G24   29.92R WCI  24
MONROE         CLOUDY    34  18  51 NW20G28   29.93R WCI  22
JANESVILLE     MOSUNNY   37  18  44 NW22      29.92R WCI  27
$$

WIZ051-052-058>065-066-070>072-212100-
SOUTHEAST WISCONSIN

CITY           SKY/WX    TMP DP  RH WIND       PRES   REMARKS
MILWAUKEE      CLOUDY    35  18  49 NW18G25   29.90R WCI  24
WAUKESHA       PTSUNNY   30  16  55 NW17G25   29.91R WCI  18
MILWAUKEE/TIMM CLOUDY    32  14  47 NW20G28   29.90R WCI  20
RACINE         CLOUDY    34  17  50 NW16G29   29.91R WCI  24
BURLINGTON     PTSUNNY   36  21  55 NW18G28   29.92R WCI  25
KENOSHA        CLOUDY    35  18  49 NW16G28   29.90R WCI  25
FOND DU LAC    CLOUDY    31  15  52 NW21G26   29.91R WCI  18
SHEBOYGAN      CLOUDY    33  19  56 NW14G24   29.88R WCI  23
WEST BEND      CLOUDY    32  16  51 NW18G25   29.89R WCI  20
JUNEAU         CLOUDY    30  16  54 NW13G22   29.93R WCI  20
$$

LSZ147-162-212100-
LAKE SUPERIOR

STATION/POSITION TIME  TEMP    WIND        PRES    WAVE
                       AIR SEA DIR/SP/G            HT/PER
                 (UTC) (F)     (DEG/KT/KT) (MB)    (FT/S)
DEVILS ISLAND    2000   23     290/ 22/ 26 1018.6R
SAXON HARBOR     1930   25     320/ 19/ 24 1016.9R
$$

LMZ867-665-643>646-212100-
LAKE MICHIGAN

STATION/POSITION TIME  TEMP    WIND        PRES    WAVE
                       AIR SEA DIR/SP/G            HT/PER
                 (UTC) (F)     (DEG/KT/KT) (MB)    (FT/S)
N MID LAKE BUOY  1950   33 47  310/ 25/ 31 1010.0R   6/ 6
NORTHPORT PIER   1943   32     300/ 14     1010.2R
KEWAUNEE LAKESHO 2000   32     320/ 13/ 20 1010.6
SHEBOYGAN LAKESH 2000   33     290/ 17/ 20 1012.0R
PORT WASHINGTON  1940   34     300/  9/ 19 1012.9R
MILWAUKEE LAKESH 2000   33     300/ 16/ 20   N/A
S MID LAKE BUOY  1950   38 48  340/ 23/ 29 1010.8R   6/ 5
KENOSHA   LAKESH 2000   34     320/ 16/ 21 1012.9
$$

TC  - TEMPERATURE IN CELSIUS
VSB - VISIBILITY IN STATUTE MILES
WCI - WIND CHILL INDEX
HX  - HEAT INDEX





USA.gov is the U.S. government's official web portal to all federal, state and local government web resources and services.